• In Belarus
  • List of Countries
  • For 7 days
  • Water Temperature
  • Satellite Maps
  • Weather Map
  • Weather Widgets
  • user-avatar
    Login

    Hourly Weather Algiers

    Today, 27 June, Tuesday

    Time Temperature Precipitation Wind Pressure Humidity
    00:00 +27°C° 0 mm 0 mps 746 mmHg 58%
    01:00 +27°C° 0 mm 0 mps 746 mmHg 57%
    02:00 +26°C° 0 mm 0 mps 746 mmHg 56%
    03:00 +26°C° 0 mm 0 mps 745 mmHg 55%
    04:00 +29°C° 0 mm 1 mps 745 mmHg 50%
    05:00 +31°C° 0 mm 2 mps 745 mmHg 46%
    06:00 +32°C° 0 mm 2 mps 745 mmHg 41%
    07:00 +36°C° 0 mm 2 mps 745 mmHg 35%
    08:00 +38°C° 0 mm 2 mps 745 mmHg 29%
    09:00 +42°C° 0 mm 3 mps 745 mmHg 23%
    10:00 +42°C° 0 mm 3 mps 745 mmHg 23%
    11:00 +43°C° 0 mm 3 mps 745 mmHg 23%
    12:00 +44°C° 0 mm 4 mps 745 mmHg 20%
    13:00 +43°C° 0.1 mm 4 mps 744 mmHg 25%
    14:00 +40°C° 0.1 mm 3 mps 744 mmHg 29%
    15:00 +38°C° 0.1 mm 3 mps 744 mmHg 33%
    16:00 +37°C° 0 mm 3 mps 744 mmHg 37%
    17:00 +36°C° 0 mm 2 mps 744 mmHg 42%
    18:00 +34°C° 0 mm 2 mps 744 mmHg 46%
    19:00 +34°C° 0 mm 2 mps 744 mmHg 47%
    20:00 +33°C° 0 mm 3 mps 744 mmHg 48%
    21:00 +33°C° 0 mm 3 mps 744 mmHg 50%
    22:00 +33°C° 0 mm 4 mps 744 mmHg 47%
    23:00 +33°C° 0 mm 5 mps 745 mmHg 43%

    Tomorrow, 28 June, Wednesday

    Time Temperature Precipitation Wind Pressure Humidity
    00:00 +33°C° 0 mm 5 mps 745 mmHg 40%
    01:00 +32°C° 0 mm 6 mps 745 mmHg 41%
    02:00 +30°C° 0 mm 6 mps 745 mmHg 42%
    03:00 +29°C° 0 mm 7 mps 745 mmHg 43%
    04:00 +29°C° 0 mm 7 mps 745 mmHg 42%
    05:00 +29°C° 0 mm 6 mps 745 mmHg 41%
    06:00 +29°C° 0 mm 6 mps 745 mmHg 40%
    07:00 +30°C° 0 mm 7 mps 746 mmHg 35%
    08:00 +33°C° 0 mm 7 mps 746 mmHg 30%
    09:00 +34°C° 0 mm 7 mps 746 mmHg 24%
    10:00 +35°C° 0 mm 8 mps 746 mmHg 25%
    11:00 +37°C° 0 mm 8 mps 746 mmHg 25%
    12:00 +37°C° 0 mm 8 mps 746 mmHg 26%
    13:00 +37°C° 0 mm 8 mps 746 mmHg 28%
    14:00 +37°C° 0 mm 8 mps 745 mmHg 30%
    15:00 +35°C° 0 mm 8 mps 745 mmHg 33%
    16:00 +34°C° 0 mm 8 mps 745 mmHg 34%
    17:00 +33°C° 0 mm 8 mps 745 mmHg 36%
    18:00 +32°C° 0 mm 8 mps 745 mmHg 38%
    19:00 +29°C° 0 mm 7 mps 745 mmHg 42%
    20:00 +27°C° 0 mm 6 mps 746 mmHg 46%
    21:00 +26°C° 0 mm 5 mps 746 mmHg 50%
    22:00 +25°C° 0 mm 5 mps 746 mmHg 47%
    23:00 +25°C° 0 mm 5 mps 746 mmHg 43%

    Day after tomorrow, 29 June, Thursday

    Time Temperature Precipitation Wind Pressure Humidity
    00:00 +23°C° 0 mm 4 mps 746 mmHg 40%
    01:00 +23°C° 0 mm 4 mps 746 mmHg 39%
    02:00 +23°C° 0 mm 4 mps 746 mmHg 38%
    03:00 +22°C° 0 mm 4 mps 745 mmHg 37%
    04:00 +23°C° 0 mm 5 mps 746 mmHg 37%
    05:00 +25°C° 0 mm 5 mps 746 mmHg 37%
    06:00 +26°C° 0 mm 5 mps 746 mmHg 37%
    07:00 +28°C° 0 mm 5 mps 746 mmHg 37%
    08:00 +29°C° 0 mm 5 mps 746 mmHg 37%
    09:00 +30°C° 0 mm 5 mps 746 mmHg 37%
    10:00 +33°C° 0 mm 6 mps 746 mmHg 35%
    11:00 +34°C° 0 mm 6 mps 746 mmHg 33%
    12:00 +35°C° 0 mm 6 mps 746 mmHg 30%
    13:00 +35°C° 0 mm 7 mps 745 mmHg 34%
    14:00 +34°C° 0 mm 7 mps 745 mmHg 38%
    15:00 +34°C° 0 mm 7 mps 745 mmHg 42%
    16:00 +32°C° 0 mm 6 mps 745 mmHg 47%
    17:00 +30°C° 0 mm 6 mps 745 mmHg 52%
    18:00 +28°C° 0 mm 5 mps 745 mmHg 57%
    19:00 +27°C° 0 mm 4 mps 745 mmHg 62%
    20:00 +25°C° 0 mm 4 mps 746 mmHg 67%
    21:00 +24°C° 0 mm 3 mps 746 mmHg 72%
    22:00 +24°C° 0 mm 2 mps 746 mmHg 74%
    23:00 +23°C° 0 mm 2 mps 746 mmHg 77%

    30 June, Friday

    Time Temperature Precipitation Wind Pressure Humidity
    00:00 +23°C° 0 mm 1 mps 746 mmHg 80%
    01:00 +22°C° 0 mm 1 mps 745 mmHg 81%
    02:00 +22°C° 0 mm 1 mps 745 mmHg 82%
    03:00 +21°C° 0 mm 1 mps 745 mmHg 83%
    04:00 +22°C° 0 mm 1 mps 745 mmHg 77%
    05:00 +23°C° 0 mm 1 mps 745 mmHg 71%
    06:00 +24°C° 0 mm 2 mps 745 mmHg 65%
    07:00 +26°C° 0 mm 2 mps 745 mmHg 57%
    08:00 +27°C° 0 mm 2 mps 746 mmHg 49%
    09:00 +28°C° 0 mm 2 mps 746 mmHg 42%
    10:00 +28°C° 0 mm 2 mps 746 mmHg 40%
    11:00 +29°C° 0 mm 2 mps 746 mmHg 38%
    12:00 +29°C° 0 mm 2 mps 746 mmHg 36%
    13:00 +30°C° 0 mm 3 mps 746 mmHg 36%
    14:00 +30°C° 0 mm 3 mps 746 mmHg 36%
    15:00 +30°C° 0 mm 4 mps 746 mmHg 36%
    16:00 +29°C° 0 mm 4 mps 747 mmHg 38%
    17:00 +28°C° 0 mm 4 mps 747 mmHg 40%
    18:00 +28°C° 0 mm 4 mps 747 mmHg 41%
    19:00 +25°C° 0 mm 4 mps 748 mmHg 51%
    20:00 +22°C° 0 mm 3 mps 748 mmHg 60%
    21:00 +20°C° 0 mm 2 mps 749 mmHg 69%
    22:00 +20°C° 0 mm 2 mps 749 mmHg 70%
    23:00 +19°C° 0 mm 3 mps 749 mmHg 72%

    1 July, Saturday

    Time Temperature Precipitation Wind Pressure Humidity
    00:00 +19°C° 0 mm 3 mps 749 mmHg 74%
    01:00 +18°C° 0 mm 3 mps 749 mmHg 75%
    02:00 +18°C° 0 mm 3 mps 748 mmHg 76%
    03:00 +17°C° 0 mm 3 mps 748 mmHg 78%
    04:00 +19°C° 0 mm 2 mps 749 mmHg 74%
    05:00 +20°C° 0 mm 2 mps 749 mmHg 70%
    06:00 +23°C° 0 mm 2 mps 750 mmHg 67%
    07:00 +24°C° 0 mm 2 mps 750 mmHg 58%
    08:00 +26°C° 0 mm 2 mps 750 mmHg 50%
    09:00 +27°C° 0 mm 3 mps 751 mmHg 42%
    10:00 +28°C° 0 mm 3 mps 751 mmHg 39%
    11:00 +29°C° 0 mm 3 mps 750 mmHg 36%
    12:00 +30°C° 0 mm 4 mps 750 mmHg 33%
    13:00 +30°C° 0 mm 4 mps 750 mmHg 35%
    14:00 +30°C° 0 mm 4 mps 750 mmHg 37%
    15:00 +30°C° 0 mm 5 mps 750 mmHg 39%
    16:00 +28°C° 0 mm 4 mps 750 mmHg 43%
    17:00 +27°C° 0 mm 4 mps 751 mmHg 47%
    18:00 +26°C° 0 mm 4 mps 751 mmHg 51%
    19:00 +25°C° 0 mm 3 mps 751 mmHg 61%
    20:00 +22°C° 0 mm 3 mps 752 mmHg 70%
    21:00 +20°C° 0 mm 2 mps 752 mmHg 80%
    22:00 +20°C° 0 mm 2 mps 752 mmHg 83%
    23:00 +20°C° 0 mm 1 mps 752 mmHg 87%

    2 July, Sunday

    Time Temperature Precipitation Wind Pressure Humidity
    00:00 +19°C° 0 mm 1 mps 752 mmHg 90%
    01:00 +19°C° 0 mm 1 mps 752 mmHg 90%
    02:00 +19°C° 0 mm 1 mps 752 mmHg 91%
    03:00 +18°C° 0 mm 1 mps 751 mmHg 91%
    04:00 +20°C° 0 mm 1 mps 752 mmHg 87%
    05:00 +21°C° 0 mm 1 mps 752 mmHg 83%
    06:00 +21°C° 0 mm 2 mps 752 mmHg 79%
    07:00 +24°C° 0 mm 2 mps 752 mmHg 67%
    08:00 +25°C° 0 mm 2 mps 752 mmHg 55%
    09:00 +27°C° 0 mm 2 mps 752 mmHg 43%
    10:00 +28°C° 0 mm 3 mps 752 mmHg 40%
    11:00 +30°C° 0 mm 4 mps 752 mmHg 37%
    12:00 +32°C° 0 mm 5 mps 752 mmHg 34%
    13:00 +32°C° 0 mm 5 mps 752 mmHg 36%
    14:00 +32°C° 0 mm 6 mps 751 mmHg 38%
    15:00 +30°C° 0 mm 7 mps 751 mmHg 40%
    16:00 +29°C° 0 mm 7 mps 751 mmHg 44%
    17:00 +28°C° 0 mm 7 mps 751 mmHg 48%
    18:00 +27°C° 0 mm 7 mps 751 mmHg 52%
    19:00 +26°C° 0 mm 6 mps 751 mmHg 60%
    20:00 +23°C° 0 mm 6 mps 752 mmHg 68%
    21:00 +21°C° 0 mm 6 mps 752 mmHg 77%
    22:00 +20°C° 0 mm 5 mps 752 mmHg 79%
    23:00 +20°C° 0 mm 5 mps 752 mmHg 82%
    Show more